Home > Weather > Tallinn > Past weeks

Flag for Estonia Weather for the Past 2 Weeks in Tallinn, Estonia

Now
64 °F

Passing clouds.


Feels Like: 64 °F
Forecast: 44 / 57 °F
Wind: 10 mph from Northwest

Location: Tallinn

Current Time: May 5, 2016 at 5:50:37 PM

Latest Report: May 5, 2016 at 5:20 PM


Visibility: N/A

Pressure: 30.24 "Hg

Humidity: 32%

Dew Point: 34 °F

Location of TallinnLocation

Historic Weather in Tallinn — Graph

°F

Tallinn Temperature Yesterday

Maximum temperature yesterday: 66 °F (at 2:20 PM)
Minimum temperature yesterday: 41 °F (at 3:50 AM)
Average temperature yesterday: 55 °F

High & Low Weather Summary for the Past Weeks

 TemperatureHumidityPressure
High66 °F (May 4, 2:20 PM)100% (Apr 23, 4:50 AM)30.36 "Hg (Apr 23, 4:50 AM)
Low25 °F (Apr 24, 6:20 AM)28% (May 5, 3:20 PM)29.42 "Hg (Apr 25, 1:50 AM)
Average45 °F71%29.96 "Hg
* Reported Apr 20 4:20 PM — May 5 4:20 PM, Tallinn, Weather by CustomWeather, © 2016

Note: Actual official high and low records may vary slightly from our data, if they occured in-between our weather recording intervals... More about our weather records

Advertising

Tallinn Weather History for the Previous 24 Hours

Scroll right to see more
 ConditionsComfort  
Time TempWeatherWind HumidityBarometerVisibility
4:20 PM
Thu, May 5
64 °FPassing clouds.9 mph30%30.24 "HgN/A
3:50 PM64 °FPassing clouds.8 mph32%30.24 "HgN/A
3:20 PM64 °FSunny.8 mph28%30.24 "Hg10 mi
2:50 PM64 °FPassing clouds.10 mph32%30.24 "HgN/A
2:20 PM63 °FPassing clouds.8 mph34%30.24 "HgN/A
1:50 PM63 °FPassing clouds.10 mph39%30.27 "HgN/A
1:20 PM61 °FPassing clouds.10 mph42%30.27 "HgN/A
12:50 PM61 °FPassing clouds.10 mph42%30.27 "HgN/A
12:20 PM61 °FSunny.12 mph42%30.27 "Hg10 mi
11:50 AM61 °FPassing clouds.10 mph42%30.27 "HgN/A
11:20 AM63 °FSunny.10 mph37%30.27 "Hg10 mi
10:50 AM61 °FPassing clouds.8 mph42%30.24 "HgN/A
10:20 AM59 °FPassing clouds.5 mph51%30.24 "HgN/A
9:50 AM55 °FSunny.7 mph55%30.24 "Hg10 mi
9:20 AM57 °FPassing clouds.5 mph51%30.24 "HgN/A
8:50 AM55 °FPassing clouds.5 mph51%30.24 "HgN/A
8:20 AM52 °FPassing clouds.5 mph58%30.24 "HgN/A
7:50 AM52 °FSunny.7 mph58%30.24 "Hg10 mi
7:20 AM50 °FSunny.6 mph67%30.24 "Hg10 mi
6:50 AM46 °FSunny.6 mph82%30.24 "Hg10 mi
6:20 AM45 °FSunny.6 mph81%30.24 "Hg10 mi
5:50 AM45 °FClear.6 mph81%30.24 "Hg10 mi
5:20 AM45 °FClear.8 mph81%30.24 "Hg10 mi
4:50 AM45 °FClear.7 mph81%30.24 "Hg10 mi
4:20 AM45 °FClear.8 mph81%30.24 "Hg10 mi
3:50 AM45 °FClear.7 mph81%30.24 "Hg10 mi
3:20 AM45 °FClear.9 mph81%30.21 "Hg10 mi
2:50 AM46 °FClear.7 mph76%30.21 "Hg10 mi
2:20 AM46 °FClear.7 mph76%30.21 "Hg10 mi
1:50 AM46 °FClear.10 mph76%30.21 "Hg10 mi
1:20 AM46 °FClear.8 mph76%30.21 "Hg10 mi
12:50 AM48 °FClear.8 mph71%30.21 "Hg10 mi
12:20 AM50 °FClear.6 mph62%30.21 "Hg10 mi
11:50 PM
Wed, May 4
50 °FClear.7 mph62%30.21 "Hg10 mi
11:20 PM50 °FClear.8 mph62%30.21 "Hg10 mi
10:50 PM50 °FClear.9 mph62%30.21 "Hg10 mi
10:20 PM52 °FSunny.8 mph58%30.21 "Hg10 mi
9:50 PM55 °FSunny.7 mph47%30.18 "Hg10 mi
9:20 PM54 °FSunny.8 mph54%30.18 "Hg10 mi
8:50 PM57 °FSunny.8 mph44%30.18 "Hg10 mi
8:20 PM59 °FSunny.8 mph42%30.18 "Hg10 mi
7:50 PM59 °FSunny.9 mph42%30.18 "Hg10 mi
7:20 PM59 °FSunny.9 mph39%30.18 "Hg10 mi
6:50 PM63 °FSunny.9 mph32%30.18 "Hg10 mi
6:20 PM64 °FSunny.8 mph30%30.18 "Hg10 mi
5:50 PM64 °FPassing clouds.8 mph30%30.18 "HgN/A
5:20 PM64 °FPassing clouds.9 mph32%30.15 "HgN/A
Weather by CustomWeather, © 2016

See weather overviewHow to use our weather pages